This is the latest recevied weather packets stored in our database for station/object 9W3FAB-1. If no packets are shown the sender has not sent any weather packets the latest 10 day(s).
| Time | Temp. | Humidity | Pressure | Rain* | Wind** | Luminosity | Snow |
|---|---|---|---|---|---|---|---|
| 1777723322 | 28.33° C | 100% | 1006.6 hPa | - | - | - | - |
| 1777722422 | 28.33° C | 100% | 1006.4 hPa | - | - | - | - |
| 1777721521 | 28.33° C | 100% | 1006.1 hPa | - | - | - | - |
| 1777720620 | 28.33° C | 100% | 1005.8 hPa | - | - | - | - |
| 1777719719 | 27.78° C | 100% | 1005.8 hPa | - | - | - | - |
| 1777718817 | 28.33° C | 100% | 1005.3 hPa | - | - | - | - |
| 1777717917 | 27.78° C | 100% | 1005.2 hPa | - | - | - | - |
| 1777717016 | 27.78° C | 100% | 1005.2 hPa | - | - | - | - |
| 1777716115 | 28.33° C | 100% | 1005.2 hPa | - | - | - | - |
| 1777715214 | 27.78° C | 100% | 1005.1 hPa | - | - | - | - |
| 1777714313 | 28.33° C | 100% | 1005 hPa | - | - | - | - |
| 1777713412 | 27.78° C | 100% | 1005.2 hPa | - | - | - | - |
| 1777712512 | 28.33° C | 100% | 1004.9 hPa | - | - | - | - |
| 1777711611 | 28.33° C | 100% | 1005.2 hPa | - | - | - | - |
| 1777710710 | 28.33° C | 100% | 1005.1 hPa | - | - | - | - |
| 1777709809 | 28.33° C | 100% | 1005 hPa | - | - | - | - |
| 1777708908 | 28.33° C | 100% | 1005 hPa | - | - | - | - |
| 1777708007 | 28.33° C | 100% | 1005 hPa | - | - | - | - |
| 1777707107 | 27.78° C | 100% | 1005.7 hPa | - | - | - | - |
| 1777706206 | 28.33° C | 100% | 1005.6 hPa | - | - | - | - |
| 1777705305 | 28.89° C | 100% | 1005.7 hPa | - | - | - | - |
| 1777704404 | 28.89° C | 100% | 1005.2 hPa | - | - | - | - |
| 1777703503 | 29.44° C | 100% | 1005.5 hPa | - | - | - | - |
| 1777702602 | 30° C | 100% | 1005.5 hPa | - | - | - | - |
| 1777701701 | 30° C | 100% | 1005.9 hPa | - | - | - | - |
* Rain since midnight (hover to see other rain measurements)
** Current wind speed in m/s (hover to see current wind gust speed)